Sturgis, MI

1:39 AM EST on January 20, 2017 (GMT -0500)
Kirsch Municipal

Weather History for KIRS - January, 2014

Change the Weather History Date:

Thursday, January 16, 2014

  Actual Average (KHAI) Record (KHAI)
Temperature  
Mean Temperature 22 °F -  
Max Temperature 28 °F 30 °F 56 °F (1953)
Min Temperature 17 °F 12 °F -18 °F (1972)
Degree Days  
Heating Degree Days 42    
Moisture  
Dew Point 19 °F    
Average Humidity 87    
Maximum Humidity 100    
Minimum Humidity 73    
Precipitation  
Precipitation 0.00 in - - ()
Sea Level Pressure  
Sea Level Pressure 29.68 in    
Wind  
Wind Speed 15 mph (South)    
Max Wind Speed 18 mph    
Max Gust Speed 24 mph    
Visibility 6 miles    
Events Snow    
Averages and records for this station are not official NWS values.
T = Trace of Precipitation, MM = Missing Value Source: NWS Daily Summary

Daily Weather History Graph

Daily Weather History Graph

Search for Another Location

Airport or City:

Trip Planner

Search our weather history database for the weather conditions in past years. The results will help you decide how hot, cold, wet, or windy it might be!

Date:

Astronomy

Jan. 16, 2014 Rise Set
Actual Time 8:06 AM EST 5:37 PM EST
Civil Twilight 7:35 AM EST 6:07 PM EST
Nautical Twilight 7:01 AM EST 6:42 PM EST
Astronomical Twilight 6:28 AM EST 7:15 PM EST
Moon 6:29 PM EST (1/16) 7:58 AM EST (1/16)
Length of Visible Light 10h 32m
Length of Day
9h 30m
Full, 100% of the Moon is Illuminated
Jan 16
Full
Jan 24
Last Quarter
Jan 30
New
Feb 6
First Quarter
Feb 14
Full

Hourly Weather History & Observations

Time (EST) Temp. Windchill Dew Point Humidity Pressure Visibility Wind Dir Wind Speed Gust Speed Precip Events Conditions
12:15 AM 17.6 °F 4.3 °F 10.4 °F 73% 29.92 in 10.0 mi SSW 12.7 mph - N/A   Overcast
12:35 AM 17.6 °F 3.2 °F 10.4 °F 73% 29.90 in 10.0 mi SSW 15.0 mph - N/A   Overcast
12:55 AM 17.6 °F 3.2 °F 12.2 °F 79% 29.90 in 10.0 mi SSW 15.0 mph 23.0 mph N/A   Overcast
1:15 AM 17.6 °F 4.3 °F 12.2 °F 79% 29.90 in 10.0 mi SSW 12.7 mph - N/A   Overcast
1:35 AM 17.6 °F 4.3 °F 12.2 °F 79% 29.89 in 10.0 mi SSW 12.7 mph 18.4 mph N/A   Overcast
1:54 AM 17.6 °F 2.7 °F 12.2 °F 79% 29.89 in 10.0 mi SSW 16.1 mph - N/A   Overcast
2:15 AM 17.6 °F 3.2 °F 12.2 °F 79% 29.89 in 10.0 mi SSW 15.0 mph - N/A   Overcast
2:35 AM 17.6 °F 2.2 °F 12.2 °F 79% 29.88 in 10.0 mi SSW 17.3 mph 23.0 mph N/A   Overcast
2:54 AM 17.6 °F 2.7 °F 12.2 °F 79% 29.87 in 10.0 mi South 16.1 mph - N/A   Mostly Cloudy
3:15 AM 17.6 °F 3.2 °F 12.2 °F 79% 29.86 in 10.0 mi South 15.0 mph - N/A   Overcast
3:35 AM 17.6 °F 3.7 °F 12.2 °F 79% 29.84 in 10.0 mi South 13.8 mph 20.7 mph N/A   Overcast
3:54 AM 17.6 °F 2.7 °F 12.2 °F 79% 29.82 in 10.0 mi South 16.1 mph 20.7 mph N/A   Overcast
4:15 AM 17.6 °F 2.7 °F 12.2 °F 79% 29.81 in 10.0 mi South 16.1 mph 19.6 mph N/A   Overcast
4:35 AM 17.6 °F 2.7 °F 12.2 °F 79% 29.79 in 10.0 mi South 16.1 mph 23.0 mph N/A   Overcast
4:54 AM 17.6 °F 2.7 °F 12.2 °F 79% 29.79 in 10.0 mi South 16.1 mph - N/A   Overcast
5:15 AM 17.6 °F 3.2 °F 12.2 °F 79% 29.78 in 10.0 mi South 15.0 mph 19.6 mph N/A   Overcast
5:35 AM 17.6 °F 3.7 °F 12.2 °F 79% 29.77 in 10.0 mi South 13.8 mph 21.9 mph N/A   Overcast
5:55 AM 17.6 °F 2.7 °F 14.0 °F 86% 29.76 in 10.0 mi South 16.1 mph 20.7 mph N/A   Overcast
6:15 AM 19.4 °F 6.0 °F 14.0 °F 80% 29.75 in 10.0 mi South 13.8 mph - N/A   Overcast
6:35 AM 19.4 °F 5.0 °F 14.0 °F 80% 29.74 in 10.0 mi South 16.1 mph 19.6 mph N/A   Overcast
6:55 AM 19.4 °F 4.1 °F 15.8 °F 86% 29.72 in 7.0 mi South 18.4 mph 21.9 mph N/A Snow Light Snow
7:14 AM 19.4 °F 4.5 °F 15.8 °F 86% 29.72 in 10.0 mi South 17.3 mph - N/A Snow Light Snow
7:35 AM 19.4 °F 5.5 °F 15.8 °F 86% 29.71 in 10.0 mi South 15.0 mph 19.6 mph N/A   Overcast
7:55 AM 19.4 °F 5.5 °F 15.8 °F 86% 29.70 in 10.0 mi South 15.0 mph 21.9 mph N/A   Overcast
8:14 AM 19.4 °F 5.5 °F 15.8 °F 86% 29.69 in 3.0 mi South 15.0 mph - N/A Snow Light Snow
8:35 AM 19.4 °F 4.5 °F 17.6 °F 93% 29.69 in 4.0 mi South 17.3 mph 21.9 mph N/A Snow Light Snow
8:54 AM 19.4 °F 4.5 °F 17.6 °F 93% 29.68 in 3.0 mi South 17.3 mph 23.0 mph N/A Snow Light Snow
9:15 AM 19.4 °F 4.5 °F 17.6 °F 93% 29.69 in 1.0 mi South 17.3 mph 23.0 mph N/A Snow Light Snow
9:34 AM 19.4 °F 5.0 °F 17.6 °F 93% 29.69 in 1.0 mi South 16.1 mph - N/A Snow Light Snow
9:55 AM 21.2 °F 6.8 °F 19.4 °F 93% 29.68 in 1.5 mi South 17.3 mph 24.2 mph N/A Snow Light Snow
10:14 AM 21.2 °F 6.4 °F 19.4 °F 93% 29.68 in 2.0 mi South 18.4 mph 23.0 mph N/A Snow Light Snow
10:35 AM 21.2 °F 6.8 °F 19.4 °F 93% 29.68 in 1.0 mi South 17.3 mph - N/A Snow Light Snow
10:55 AM 21.2 °F 6.4 °F 19.4 °F 93% 29.68 in 1.0 mi South 18.4 mph - N/A Snow Light Snow
11:14 AM 21.2 °F 7.3 °F 19.4 °F 93% 29.67 in 1.2 mi South 16.1 mph - N/A Snow Light Snow
11:35 AM 21.2 °F 8.3 °F 19.4 °F 93% 29.66 in 2.0 mi South 13.8 mph 20.7 mph N/A Snow Light Snow
11:55 AM 23.0 °F 9.6 °F 19.4 °F 86% 29.65 in 3.0 mi South 16.1 mph 21.9 mph N/A Snow Light Snow
12:14 PM 23.0 °F 10.1 °F 19.4 °F 86% 29.64 in 1.0 mi South 15.0 mph - N/A Snow Light Snow
12:35 PM 23.0 °F 10.1 °F 21.2 °F 93% 29.62 in 0.5 mi South 15.0 mph - N/A Snow Snow
12:55 PM 23.0 °F 9.2 °F 21.2 °F 93% 29.61 in 1.5 mi South 17.3 mph - N/A Snow Light Snow
1:14 PM 24.8 °F 11.9 °F 21.2 °F 86% 29.60 in 1.5 mi South 16.1 mph - N/A Snow Light Snow
1:35 PM 24.8 °F 11.5 °F 21.2 °F 86% 29.59 in 7.0 mi South 17.3 mph 23.0 mph N/A   Overcast
1:55 PM 24.8 °F 11.9 °F 21.2 °F 86% 29.58 in 7.0 mi South 16.1 mph - N/A   Overcast
2:14 PM 24.8 °F 11.5 °F 21.2 °F 86% 29.57 in 7.0 mi South 17.3 mph 23.0 mph N/A   Overcast
2:35 PM 24.8 °F 11.9 °F 21.2 °F 86% 29.56 in 10.0 mi South 16.1 mph 23.0 mph N/A   Overcast
2:55 PM 24.8 °F 11.9 °F 21.2 °F 86% 29.56 in 1.0 mi South 16.1 mph 21.9 mph N/A Snow Light Snow
3:14 PM 26.6 °F 14.7 °F 21.2 °F 80% 29.56 in 10.0 mi South 15.0 mph - N/A   Overcast
3:35 PM 26.6 °F 15.2 °F 21.2 °F 80% 29.56 in 10.0 mi South 13.8 mph 20.7 mph N/A   Overcast
3:55 PM 26.6 °F 15.2 °F 23.0 °F 86% 29.57 in 10.0 mi South 13.8 mph - N/A   Overcast
4:14 PM 26.6 °F 15.2 °F 23.0 °F 86% 29.57 in 10.0 mi South 13.8 mph 21.9 mph N/A   Overcast
4:35 PM 26.6 °F 15.2 °F 23.0 °F 86% 29.57 in 10.0 mi South 13.8 mph 18.4 mph N/A   Overcast
4:55 PM 26.6 °F 15.7 °F 24.8 °F 93% 29.57 in 7.0 mi South 12.7 mph - N/A   Overcast
5:14 PM 26.6 °F 16.2 °F 24.8 °F 93% 29.57 in 7.0 mi South 11.5 mph 17.3 mph N/A Snow Light Snow
5:35 PM 26.6 °F 16.8 °F 24.8 °F 93% 29.58 in 7.0 mi South 10.4 mph 13.8 mph N/A   Overcast
5:55 PM 26.6 °F 14.7 °F 24.8 °F 93% 29.58 in 10.0 mi South 15.0 mph 18.4 mph N/A   Overcast
6:14 PM 26.6 °F 15.7 °F 24.8 °F 93% 29.58 in 2.5 mi South 12.7 mph - N/A Snow Light Snow
6:35 PM 26.6 °F 16.2 °F 24.8 °F 93% 29.58 in 2.0 mi South 11.5 mph - N/A Snow Light Snow
6:55 PM 26.6 °F 15.7 °F 24.8 °F 93% 29.58 in 5.0 mi South 12.7 mph - N/A Snow Light Snow
7:15 PM 26.6 °F 15.2 °F 24.8 °F 93% 29.58 in 5.0 mi South 13.8 mph - N/A Snow Light Snow
7:35 PM 26.6 °F 15.2 °F 24.8 °F 93% 29.58 in 2.5 mi South 13.8 mph - N/A Snow Light Snow
7:54 PM 26.6 °F 15.2 °F 24.8 °F 93% 29.58 in 2.5 mi South 13.8 mph - N/A Snow Light Snow
8:15 PM 26.6 °F 15.2 °F 26.6 °F 100% 29.58 in 3.0 mi South 13.8 mph - N/A Snow Light Snow
8:34 PM 26.6 °F 14.7 °F 26.6 °F 100% 29.58 in 2.0 mi South 15.0 mph - N/A Snow Light Snow
8:55 PM 26.6 °F 14.7 °F 26.6 °F 100% 29.58 in 2.5 mi South 15.0 mph 20.7 mph N/A Snow Light Snow
9:15 PM 26.6 °F 15.2 °F 26.6 °F 100% 29.58 in 3.0 mi SSW 13.8 mph 21.9 mph N/A Snow Light Snow
9:35 PM 28.4 °F 17.5 °F 26.6 °F 93% 29.59 in 5.0 mi SSW 13.8 mph - N/A Snow Light Snow
9:55 PM 28.4 °F 17.5 °F 26.6 °F 93% 29.59 in 5.0 mi SSW 13.8 mph 20.7 mph N/A Snow Light Snow
10:15 PM 28.4 °F 17.0 °F 26.6 °F 93% 29.59 in 3.0 mi SSW 15.0 mph - N/A Snow Light Snow
10:34 PM 28.4 °F 16.6 °F 26.6 °F 93% 29.60 in 3.0 mi SSW 16.1 mph - N/A Snow Light Snow
10:55 PM 28.4 °F 17.0 °F 26.6 °F 93% 29.60 in 7.0 mi SW 15.0 mph - N/A Snow Light Snow
11:15 PM 28.4 °F 18.5 °F 24.8 °F 86% 29.61 in 10.0 mi WSW 11.5 mph - N/A Snow Light Snow
11:35 PM 28.4 °F 18.5 °F 24.8 °F 86% 29.61 in 10.0 mi WSW 11.5 mph - N/A   Overcast
11:55 PM 28.4 °F 19.1 °F 24.8 °F 86% 29.61 in 10.0 mi WSW 10.4 mph 19.6 mph N/A   Overcast